Time,TemperatureF,DewpointF,PressureIn,WindDirection,WindDirectionDegrees,WindSpeedMPH,WindSpeedGustMPH,Humidity,HourlyPrecipIn,Conditions,Clouds,dailyrainin,SoftwareType,DateUTC
2013-02-13 00:00:00,48.5,33.5,29.93,SW,219,0.0,3.0,56,0.00,SCT,,0.00,WeatherDisplay:10.37,2013-02-13 05:00:00,
2013-02-13 00:15:00,48.0,36.8,29.91,NW,319,0.0,2.0,65,0.00,SCT,,0.00,WeatherDisplay:10.37,2013-02-13 05:15:00,
2013-02-13 00:30:00,47.4,37.0,29.88,NW,319,0.0,1.0,67,0.00,SCT,,0.00,WeatherDisplay:10.37,2013-02-13 05:30:00,
2013-02-13 00:45:00,47.7,36.5,29.88,NW,320,0.0,3.0,65,0.00,SCT,,0.00,WeatherDisplay:10.37,2013-02-13 05:45:00,
2013-02-13 01:00:00,47.4,37.0,29.88,NW,320,0.0,1.0,67,0.00,SCT,,0.00,WeatherDisplay:10.37,2013-02-13 06:00:00,
2013-02-13 01:15:00,47.4,36.6,29.87,NW,320,0.0,1.0,66,0.00,SCT,,0.00,WeatherDisplay:10.37,2013-02-13 06:15:00,
2013-02-13 01:30:00,47.4,37.0,29.85,NW,320,0.0,1.0,67,0.00,SCT,,0.00,WeatherDisplay:10.37,2013-02-13 06:30:00,
2013-02-13 01:45:00,47.0,37.7,29.84,NW,320,0.0,1.0,70,0.00,SCT,,0.00,WeatherDisplay:10.37,2013-02-13 06:45:00,
2013-02-13 02:00:00,46.4,38.2,29.84,NW,320,0.0,1.0,73,0.01,SCT,,0.01,WeatherDisplay:10.37,2013-02-13 07:00:00,
2013-02-13 02:15:00,46.5,38.7,29.85,NW,320,0.0,1.0,74,0.00,SCT,,0.01,WeatherDisplay:10.37,2013-02-13 07:15:00,
2013-02-13 02:30:00,45.5,40.3,29.84,NW,320,0.0,0.0,82,0.02,RA,,0.03,WeatherDisplay:10.37,2013-02-13 07:30:00,
2013-02-13 02:45:00,44.6,40.7,29.84,NW,320,0.0,0.0,86,0.01,SCT,,0.04,WeatherDisplay:10.37,2013-02-13 07:45:00,
2013-02-13 03:00:00,44.2,41.2,29.82,NW,320,0.0,0.0,89,0.03,RA,,0.07,WeatherDisplay:10.37,2013-02-13 08:00:00,
2013-02-13 03:15:00,43.8,41.1,29.83,NW,320,0.0,0.0,90,0.01,RA,,0.08,WeatherDisplay:10.37,2013-02-13 08:15:00,
2013-02-13 03:30:00,43.8,41.3,29.80,NW,320,0.0,0.0,91,0.01,SCT,,0.09,WeatherDisplay:10.37,2013-02-13 08:30:00,
2013-02-13 03:45:00,43.8,41.3,29.80,NW,320,0.0,0.0,91,0.01,RA,,0.10,WeatherDisplay:10.37,2013-02-13 08:45:00,
2013-02-13 04:00:00,43.9,41.7,29.80,NW,320,0.0,0.0,92,0.00,SCT,,0.10,WeatherDisplay:10.37,2013-02-13 09:00:00,
2013-02-13 04:15:00,43.8,41.6,29.81,NW,320,0.0,0.0,92,0.01,RA,,0.11,WeatherDisplay:10.37,2013-02-13 09:15:00,
2013-02-13 04:30:00,43.6,41.4,29.80,WSW,244,0.0,2.0,92,0.04,RA,,0.15,WeatherDisplay:10.37,2013-02-13 09:30:00,
2013-02-13 04:45:00,43.3,41.1,29.80,WSW,244,0.0,1.0,92,0.01,SCT,,0.16,WeatherDisplay:10.37,2013-02-13 09:45:00,
2013-02-13 05:00:00,43.4,41.3,29.79,WSW,244,0.0,0.0,92,0.01,RA,,0.17,WeatherDisplay:10.37,2013-02-13 10:00:00,
2013-02-13 05:15:00,43.3,41.1,29.81,WSW,244,0.0,0.0,92,0.01,RA,,0.18,WeatherDisplay:10.37,2013-02-13 10:15:00,
2013-02-13 05:30:00,43.3,41.1,29.80,WSW,244,0.0,1.0,92,0.01,RA,,0.19,WeatherDisplay:10.37,2013-02-13 10:30:00,
2013-02-13 05:45:00,43.3,41.1,29.80,WSW,244,0.0,0.0,92,0.00,SCT,,0.19,WeatherDisplay:10.37,2013-02-13 10:45:00,
2013-02-13 06:00:00,43.3,41.1,29.79,WSW,244,0.0,0.0,92,0.00,SCT,,0.19,WeatherDisplay:10.37,2013-02-13 11:00:00,
2013-02-13 06:15:00,43.2,41.0,29.80,WSW,244,0.0,0.0,92,0.00,SCT,,0.19,WeatherDisplay:10.37,2013-02-13 11:15:00,
2013-02-13 06:30:00,43.2,41.0,29.78,WSW,244,0.0,0.0,92,0.01,RA,,0.20,WeatherDisplay:10.37,2013-02-13 11:30:00,
2013-02-13 06:45:00,43.1,40.9,29.77,WSW,244,0.0,1.0,92,0.00,SCT,,0.20,WeatherDisplay:10.37,2013-02-13 11:45:00,
2013-02-13 07:00:00,42.9,40.7,29.79,WSW,244,0.0,0.0,92,0.00,SCT,,0.20,WeatherDisplay:10.37,2013-02-13 12:00:00,
2013-02-13 07:15:00,42.9,40.7,29.78,WSW,247,0.0,2.0,92,0.00,SCT,,0.20,WeatherDisplay:10.37,2013-02-13 12:15:00,
2013-02-13 07:30:00,42.8,40.6,29.79,SSW,199,0.0,3.0,92,0.00,SCT,,0.20,WeatherDisplay:10.37,2013-02-13 12:30:00,
2013-02-13 07:45:00,42.6,40.4,29.79,SSW,194,0.0,2.0,92,0.00,SCT,,0.20,WeatherDisplay:10.37,2013-02-13 12:45:00,
2013-02-13 08:00:00,42.6,40.4,29.80,SSW,194,0.0,0.0,92,0.00,SCT,,0.20,WeatherDisplay:10.37,2013-02-13 13:00:00,
2013-02-13 08:15:00,42.6,40.4,29.81,SSW,194,0.0,1.0,92,0.01,SCT,,0.21,WeatherDisplay:10.37,2013-02-13 13:15:00,
2013-02-13 08:30:00,42.8,40.6,29.79,SSW,194,0.0,1.0,92,0.00,SCT,,0.21,WeatherDisplay:10.37,2013-02-13 13:30:00,
2013-02-13 08:45:00,42.8,40.6,29.80,SSE,158,0.0,3.0,92,0.00,SCT,,0.21,WeatherDisplay:10.37,2013-02-13 13:45:00,
2013-02-13 09:00:00,42.8,40.6,29.80,ENE,77,0.0,1.0,92,0.00,SCT,,0.21,WeatherDisplay:10.37,2013-02-13 14:00:00,
2013-02-13 09:15:00,42.8,40.6,29.79,East,99,0.0,2.0,92,0.00,SCT,,0.21,WeatherDisplay:10.37,2013-02-13 14:15:00,
2013-02-13 09:30:00,42.8,40.6,29.78,West,265,0.0,1.0,92,0.00,SCT,,0.21,WeatherDisplay:10.37,2013-02-13 14:30:00,
2013-02-13 09:45:00,42.9,40.7,29.76,WSW,247,0.0,1.0,92,0.00,SCT,,0.21,WeatherDisplay:10.37,2013-02-13 14:45:00,
2013-02-13 10:00:00,42.9,41.0,29.77,SSW,196,0.0,2.0,93,0.00,SCT,,0.21,WeatherDisplay:10.37,2013-02-13 15:00:00,
2013-02-13 10:15:00,43.1,41.2,29.77,South,184,0.0,2.0,93,0.00,SCT,,0.21,WeatherDisplay:10.37,2013-02-13 15:15:00,
2013-02-13 10:30:00,43.1,41.2,29.78,South,184,0.0,1.0,93,0.00,SCT,,0.21,WeatherDisplay:10.37,2013-02-13 15:30:00,
2013-02-13 10:47:00,43.1,41.2,29.77,South,184,0.0,4.0,93,0.00,SCT,,0.21,WeatherDisplay:10.37,2013-02-13 15:47:00,
2013-02-13 11:00:00,43.3,41.4,29.75,South,184,0.0,3.0,93,0.00,SCT,,0.21,WeatherDisplay:10.37,2013-02-13 16:00:00,
2013-02-13 11:15:00,43.3,41.4,29.74,South,184,0.0,2.0,93,0.00,SCT,,0.21,WeatherDisplay:10.37,2013-02-13 16:15:00,
2013-02-13 11:30:00,43.3,41.4,29.74,South,184,0.0,2.0,93,0.00,SCT,,0.21,WeatherDisplay:10.37,2013-02-13 16:30:00,
2013-02-13 11:45:00,43.5,41.6,29.72,South,184,0.0,1.0,93,0.00,SCT,,0.21,WeatherDisplay:10.37,2013-02-13 16:45:00,
2013-02-13 12:00:00,43.6,41.7,29.72,South,184,0.0,1.0,93,0.00,SCT,,0.21,WeatherDisplay:10.37,2013-02-13 17:00:00,
2013-02-13 12:15:00,43.8,41.9,29.71,South,184,0.0,1.0,93,0.00,SCT,,0.21,WeatherDisplay:10.37,2013-02-13 17:15:00,
2013-02-13 12:30:00,43.9,42.0,29.70,South,184,0.0,1.0,93,0.00,SCT,,0.21,WeatherDisplay:10.37,2013-02-13 17:30:00,
2013-02-13 12:45:00,44.1,42.2,29.67,South,184,0.0,1.0,93,0.00,SCT,,0.21,WeatherDisplay:10.37,2013-02-13 17:45:00,
2013-02-13 13:00:00,44.1,42.2,29.65,South,184,0.0,2.0,93,0.00,SCT,,0.21,WeatherDisplay:10.37,2013-02-13 18:00:00,
2013-02-13 13:15:00,44.1,42.2,29.67,South,184,0.0,0.0,93,0.00,SCT,,0.21,WeatherDisplay:10.37,2013-02-13 18:15:00,
2013-02-13 13:30:00,44.2,42.3,29.64,South,184,0.0,0.0,93,0.00,SCT,,0.21,WeatherDisplay:10.37,2013-02-13 18:30:00,
2013-02-13 13:45:00,44.3,42.1,29.62,South,184,0.0,1.0,92,0.00,SCT,,0.21,WeatherDisplay:10.37,2013-02-13 18:45:00,
2013-02-13 14:00:00,44.3,42.1,29.63,South,184,0.0,1.0,92,0.00,SCT,,0.21,WeatherDisplay:10.37,2013-02-13 19:00:00,
2013-02-13 14:15:00,44.5,42.3,29.63,South,184,0.0,1.0,92,0.00,SCT,,0.21,WeatherDisplay:10.37,2013-02-13 19:15:00,
2013-02-13 14:30:00,44.5,42.3,29.65,South,184,0.0,1.0,92,0.00,SCT,,0.21,WeatherDisplay:10.37,2013-02-13 19:30:00,
2013-02-13 14:45:00,44.6,42.4,29.64,South,184,0.0,3.0,92,0.00,SCT,,0.21,WeatherDisplay:10.37,2013-02-13 19:45:00,
2013-02-13 15:00:00,44.8,42.6,29.64,South,184,0.0,2.0,92,0.00,SCT,,0.21,WeatherDisplay:10.37,2013-02-13 20:00:00,
2013-02-13 15:15:00,44.8,42.6,29.64,SSE,165,0.0,1.0,92,0.00,SCT,,0.21,WeatherDisplay:10.37,2013-02-13 20:15:00,
2013-02-13 15:30:00,44.8,42.6,29.64,South,178,0.0,3.0,92,0.00,SCT,,0.21,WeatherDisplay:10.37,2013-02-13 20:30:00,
2013-02-13 15:45:00,44.9,42.7,29.64,South,178,0.0,1.0,92,0.00,SCT,,0.21,WeatherDisplay:10.37,2013-02-13 20:45:00,
2013-02-13 16:00:00,44.9,42.7,29.63,South,178,0.0,1.0,92,0.00,SCT,,0.21,WeatherDisplay:10.37,2013-02-13 21:00:00,
2013-02-13 16:15:00,44.9,42.7,29.63,South,178,0.0,1.0,92,0.00,SCT,,0.21,WeatherDisplay:10.37,2013-02-13 21:15:00,
2013-02-13 16:30:00,44.9,42.7,29.64,South,178,0.0,2.0,92,0.00,SCT,,0.21,WeatherDisplay:10.37,2013-02-13 21:30:00,
2013-02-13 16:45:00,45.1,42.9,29.64,South,178,0.0,1.0,92,0.00,SCT,,0.21,WeatherDisplay:10.37,2013-02-13 21:45:00,
2013-02-13 17:00:00,44.9,42.7,29.65,South,174,0.0,2.0,92,0.00,SCT,,0.21,WeatherDisplay:10.37,2013-02-13 22:00:00,
2013-02-13 17:15:00,45.1,42.9,29.65,South,172,0.0,1.0,92,0.00,SCT,,0.21,WeatherDisplay:10.37,2013-02-13 22:15:00,
2013-02-13 17:30:00,45.1,42.9,29.65,South,178,0.0,1.0,92,0.00,SCT,,0.21,WeatherDisplay:10.37,2013-02-13 22:30:00,
2013-02-13 17:45:00,45.1,42.9,29.65,South,178,0.0,1.0,92,0.00,SCT,,0.21,WeatherDisplay:10.37,2013-02-13 22:45:00,
2013-02-13 18:00:00,45.1,42.9,29.66,South,178,0.0,2.0,92,0.00,SCT,,0.21,WeatherDisplay:10.37,2013-02-13 23:00:00,
2013-02-13 18:15:00,45.2,43.0,29.67,SSE,166,0.0,1.0,92,0.00,SCT,,0.21,WeatherDisplay:10.37,2013-02-13 23:15:00,
2013-02-13 18:30:00,45.2,43.0,29.68,South,177,0.0,2.0,92,0.00,SCT,,0.21,WeatherDisplay:10.37,2013-02-13 23:30:00,
2013-02-13 18:45:00,45.2,43.0,29.68,SSE,151,0.0,2.0,92,0.00,SCT,,0.21,WeatherDisplay:10.37,2013-02-13 23:45:00,
2013-02-13 19:00:00,45.4,43.2,29.69,WSW,257,0.0,2.0,92,0.00,SCT,,0.21,WeatherDisplay:10.37,2013-02-14 00:00:00,
2013-02-13 19:15:00,45.5,43.3,29.70,SW,215,0.0,2.0,92,0.00,SCT,,0.21,WeatherDisplay:10.37,2013-02-14 00:15:00,
2013-02-13 19:30:00,45.4,43.2,29.71,North,9,0.0,1.0,92,0.00,SCT,,0.21,WeatherDisplay:10.37,2013-02-14 00:30:00,
2013-02-13 19:47:00,45.5,43.3,29.71,NW,312,0.0,2.0,92,0.00,SCT,,0.21,WeatherDisplay:10.37,2013-02-14 00:47:00,
2013-02-13 20:00:00,45.5,43.3,29.72,SSE,158,0.0,4.0,92,0.00,SCT,,0.21,WeatherDisplay:10.37,2013-02-14 01:00:00,
2013-02-13 20:15:00,45.7,43.5,29.72,WNW,289,1.0,12.0,92,0.00,SCT,,0.21,WeatherDisplay:10.37,2013-02-14 01:15:00,
2013-02-13 20:30:00,45.5,43.3,29.73,West,277,0.0,12.0,92,0.00,SCT,,0.21,WeatherDisplay:10.37,2013-02-14 01:30:00,
2013-02-13 20:45:00,45.4,42.9,29.75,NW,317,2.0,12.0,91,0.00,SCT,,0.21,WeatherDisplay:10.37,2013-02-14 01:45:00,
2013-02-13 21:00:00,44.2,41.2,29.75,NW,311,2.0,16.0,89,0.00,SCT,,0.21,WeatherDisplay:10.37,2013-02-14 02:00:00,
2013-02-13 21:15:00,43.1,38.6,29.76,WNW,301,5.0,15.0,84,0.00,SCT,,0.21,WeatherDisplay:10.37,2013-02-14 02:15:00,
2013-02-13 21:30:00,42.9,37.5,29.77,NW,313,2.0,9.0,81,0.00,SCT,,0.21,WeatherDisplay:10.37,2013-02-14 02:30:00,
2013-02-13 21:45:00,42.3,35.3,29.78,NW,312,2.0,15.0,76,0.00,SCT,,0.21,WeatherDisplay:10.37,2013-02-14 02:45:00,
2013-02-13 22:00:00,42.1,34.1,29.79,WNW,299,1.0,13.0,73,0.00,SCT,,0.21,WeatherDisplay:10.37,2013-02-14 03:00:00,
2013-02-13 22:15:00,41.8,33.4,29.79,WNW,284,5.0,12.0,72,0.00,SCT,,0.21,WeatherDisplay:10.37,2013-02-14 03:15:00,
2013-02-13 22:30:00,41.5,33.1,29.79,NW,317,2.0,10.0,72,0.00,SCT,,0.21,WeatherDisplay:10.37,2013-02-14 03:30:00,
2013-02-13 22:45:00,41.2,32.8,29.81,NW,313,1.0,6.0,72,0.00,SCT,,0.21,WeatherDisplay:10.37,2013-02-14 03:45:00,
2013-02-13 23:00:00,40.8,32.8,29.81,WNW,291,1.0,3.0,73,0.00,SCT,,0.21,WeatherDisplay:10.37,2013-02-14 04:00:00,
2013-02-13 23:15:00,40.3,32.7,29.81,WNW,300,1.0,7.0,74,0.00,SCT,,0.21,WeatherDisplay:10.37,2013-02-14 04:15:00,
2013-02-13 23:30:00,39.9,32.6,29.81,NNW,346,0.0,3.0,75,0.00,SCT,,0.21,WeatherDisplay:10.37,2013-02-14 04:30:00,
2013-02-13 23:45:00,39.5,32.2,29.82,NNW,346,0.0,0.0,75,0.00,SCT,,0.21,WeatherDisplay:10.37,2013-02-14 04:45:00,